Weather History for KTIW - July, 2013

Change the Weather History Date:

Friday, July 5, 2013

  Actual Average Record
Temperature  
Mean Temperature 64 °F -  
Max Temperature 72 °F 70 °F 78 °F (2007)
Min Temperature 55 °F 52 °F 48 °F (1999)
Degree Days  
Heating Degree Days 2    
Growing Degree Days 14 (Base 50)    
Moisture  
Dew Point 51 °F    
Average Humidity 71    
Maximum Humidity 88    
Minimum Humidity 49    
Precipitation  
Precipitation 0.00 in - - ()
Sea Level Pressure  
Sea Level Pressure 30.03 in    
Wind  
Wind Speed 3 mph (SSW)    
Max Wind Speed 7 mph    
Max Gust Speed -    
Visibility 10 miles    
Events      
Averages and records for this station are not official NWS values.
T = Trace of Precipitation, MM = Missing Value Source: NWS Daily Summary

Daily Weather History Graph

Daily Weather History Graph

Search for Another Location

Airport or City:

Trip Planner

Search our weather history database for the weather conditions in past years. The results will help you decide how hot, cold, wet, or windy it might be!

Date:

Astronomy

Jul. 05, 2013 Rise Set
Actual Time 5:21 AM PDT 9:08 PM PDT
Civil Twilight 4:41 AM PDT 9:48 PM PDT
Nautical Twilight 3:47 AM PDT 10:41 PM PDT
Astronomical Twilight 2:29 AM PDT 11:58 PM PDT
Moon 3:28 AM PDT (7/5) 7:04 PM PDT (7/5)
Length of Visible Light 17h 06m
Length of Day
15h 47m
Waning Crescent, 6% of the Moon is Illuminated
Jul 5
Waning Crescent
Jul 8
New
Jul 15
First Quarter
Jul 22
Full
Jul 29
Last Quarter

Hourly Weather History & Observations

Time (PDT) Temp. Dew Point Humidity Pressure Visibility Wind Dir Wind Speed Gust Speed Precip Events Conditions
12:53 AM 57.9 °F 50.0 °F 75% 30.05 in 10.0 mi SW 5.8 mph - N/A   Overcast
1:53 AM 57.0 °F 51.1 °F 81% 30.05 in 10.0 mi Calm Calm - N/A   Overcast
2:53 AM 57.0 °F 51.1 °F 81% 30.04 in 10.0 mi SSW 3.5 mph - N/A   Overcast
3:29 AM 55.4 °F 50.0 °F 82% 30.04 in 10.0 mi South 4.6 mph - N/A   Overcast
3:53 AM 55.9 °F 50.0 °F 80% 30.04 in 10.0 mi South 4.6 mph - N/A   Overcast
4:53 AM 55.0 °F 50.0 °F 83% 30.04 in 10.0 mi South 4.6 mph - N/A   Overcast
5:28 AM 55.4 °F 50.0 °F 82% 30.04 in 10.0 mi Calm Calm - N/A   Overcast
5:53 AM 55.0 °F 50.0 °F 83% 30.04 in 10.0 mi Calm Calm - N/A   Overcast
6:00 AM 55.4 °F 50.0 °F 82% 30.04 in 10.0 mi Calm Calm - N/A   Overcast
6:53 AM 55.9 °F 51.1 °F 84% 30.05 in 10.0 mi Calm Calm - N/A   Overcast
7:36 AM 55.4 °F 51.8 °F 88% 30.05 in 10.0 mi Calm Calm - N/A   Overcast
7:53 AM 55.9 °F 51.1 °F 84% 30.06 in 10.0 mi SW 3.5 mph - N/A   Overcast
8:53 AM 57.0 °F 51.1 °F 81% 30.05 in 10.0 mi Calm Calm - N/A   Overcast
9:39 AM 57.2 °F 51.8 °F 82% 30.05 in 10.0 mi SSE 3.5 mph - N/A   Overcast
9:53 AM 59.0 °F 51.1 °F 75% 30.05 in 10.0 mi South 3.5 mph - N/A   Overcast
10:53 AM 62.1 °F 52.0 °F 70% 30.04 in 10.0 mi SSE 5.8 mph - N/A   Partly Cloudy
11:40 AM 64.4 °F 53.6 °F 68% 30.05 in 10.0 mi Variable 3.5 mph - N/A   Mostly Cloudy
11:53 AM 64.0 °F 53.1 °F 67% 30.04 in 10.0 mi Variable 4.6 mph - N/A   Overcast
12:32 PM 64.4 °F 53.6 °F 68% 30.04 in 10.0 mi South 4.6 mph - N/A   Mostly Cloudy
12:53 PM 66.0 °F 53.1 °F 63% 30.04 in 10.0 mi South 6.9 mph - N/A   Mostly Cloudy
1:53 PM 68.0 °F 52.0 °F 56% 30.03 in 10.0 mi Variable 4.6 mph - N/A   Overcast
2:53 PM 69.1 °F 53.1 °F 57% 30.02 in 10.0 mi SSW 6.9 mph - N/A   Scattered Clouds
3:53 PM 70.0 °F 53.1 °F 55% 30.01 in 10.0 mi West 5.8 mph - N/A   Clear
4:53 PM 72.0 °F 52.0 °F 49% 30.00 in 10.0 mi Variable 6.9 mph - N/A   Partly Cloudy
5:53 PM 71.1 °F 51.1 °F 49% 29.98 in 10.0 mi SSW 5.8 mph - N/A   Clear
6:53 PM 70.0 °F 50.0 °F 49% 29.97 in 10.0 mi WSW 3.5 mph - N/A   Clear
7:53 PM 69.1 °F 50.0 °F 51% 29.97 in 10.0 mi Calm Calm - N/A   Scattered Clouds
8:53 PM 66.9 °F 50.0 °F 54% 29.97 in 10.0 mi Calm Calm - N/A   Clear
9:53 PM 64.0 °F 53.1 °F 67% 29.98 in 10.0 mi WSW 3.5 mph - N/A   Clear
10:53 PM 63.0 °F 53.1 °F 70% 29.99 in 10.0 mi West 6.9 mph - N/A   Clear
11:53 PM 59.0 °F 52.0 °F 78% 29.99 in 10.0 mi WSW 6.9 mph - N/A   Clear